Roanoke, VA

4:44 AM EDT on July 27, 2017 (GMT -0400)
Roanoke Regional-Woodrum

Weather History for KROA - January, 2013

Change the Weather History Date:

Thursday, January 3, 2013

  Actual Average Record
Temperature  
Mean Temperature 39 °F 36 °F  
Max Temperature 45 °F 45 °F 74 °F (2004)
Min Temperature 33 °F 28 °F 4 °F (1979)
Degree Days  
Heating Degree Days 26 28  
Month to date heating degree days 71 84  
Since 1 July heating degree days 1583 1694  
Cooling Degree Days 0 0  
Month to date cooling degree days 0 0  
Year to date cooling degree days 0 0  
Moisture  
Dew Point 18 °F    
Average Humidity 41    
Maximum Humidity 54    
Minimum Humidity 27    
Precipitation  
Precipitation 0.00 in 0.09 in 1.79 in (1992)
Month to date precipitation 0.02 0.27  
Year to date precipitation 0.02 0.27  
Snow  
Snow 0.00 in - - ()
Month to date snowfall 0.0  
Since 1 July snowfall 0.3  
Snow Depth 0.00 in    
Sea Level Pressure  
Sea Level Pressure 30.22 in    
Wind  
Wind Speed 4 mph (NW)    
Max Wind Speed 18 mph    
Max Gust Speed 24 mph    
Visibility 10 miles    
Events      
T = Trace of Precipitation, MM = Missing Value Source: NWS Daily Summary

Daily Weather History Graph

Daily Weather History Graph

Search for Another Location

Airport or City:

Trip Planner

Search our weather history database for the weather conditions in past years. The results will help you decide how hot, cold, wet, or windy it might be!

Date:

Astronomy

Jan. 03, 2013 Rise Set
Actual Time 7:34 AM EST 5:14 PM EST
Civil Twilight 7:05 AM EST 5:43 PM EST
Nautical Twilight 6:32 AM EST 6:16 PM EST
Astronomical Twilight 6:01 AM EST 6:48 PM EST
Moon 11:39 PM EST (1/3) 10:53 AM EST (1/3)
Length of Visible Light 10h 38m
Length of Day
9h 40m
Waning Gibbous, 65% of the Moon is Illuminated
Jan 3
Waning Gibbous
Jan 4
Last Quarter
Jan 11
New
Jan 18
First Quarter
Jan 26
Full

Hourly Weather History & Observations

Time (EST) Temp. Windchill Dew Point Humidity Pressure Visibility Wind Dir Wind Speed Gust Speed Precip Events Conditions
12:54 AM 35.1 °F 31.0 °F 17.1 °F 48% 30.19 in 10.0 mi NE 4.6 mph - N/A   Overcast
1:54 AM 35.1 °F - 16.0 °F 46% 30.19 in 10.0 mi Calm Calm - N/A   Overcast
2:54 AM 35.1 °F - 17.1 °F 48% 30.19 in 10.0 mi Calm Calm - N/A   Overcast
3:54 AM 35.1 °F 32.2 °F 19.0 °F 52% 30.19 in 10.0 mi NE 3.5 mph - N/A   Overcast
4:54 AM 35.1 °F - 18.0 °F 50% 30.19 in 10.0 mi Calm Calm - N/A   Overcast
5:54 AM 35.1 °F - 18.0 °F 50% 30.19 in 10.0 mi Calm Calm - N/A   Overcast
6:54 AM 35.1 °F - 19.0 °F 52% 30.22 in 10.0 mi Calm Calm - N/A   Overcast
7:54 AM 35.1 °F 32.2 °F 19.0 °F 52% 30.24 in 10.0 mi NE 3.5 mph - N/A   Overcast
8:54 AM 35.1 °F - 18.0 °F 50% 30.23 in 10.0 mi Calm Calm - N/A   Scattered Clouds
9:54 AM 37.9 °F 35.5 °F 23.0 °F 55% 30.25 in 10.0 mi NW 3.5 mph - N/A   Scattered Clouds
10:54 AM 39.0 °F - 21.9 °F 50% 30.25 in 10.0 mi Calm Calm - N/A   Partly Cloudy
11:54 AM 39.9 °F - 21.9 °F 49% 30.21 in 10.0 mi Calm Calm - N/A   Partly Cloudy
12:54 PM 42.1 °F 40.2 °F 19.9 °F 41% 30.18 in 10.0 mi Variable 3.5 mph - N/A   Partly Cloudy
1:54 PM 43.0 °F 37.2 °F 10.9 °F 27% 30.16 in 10.0 mi NNW 10.4 mph - N/A   Clear
2:54 PM 44.1 °F 37.7 °F 12.0 °F 27% 30.17 in 10.0 mi WNW 12.7 mph - N/A   Clear
3:54 PM 43.0 °F 37.2 °F 15.1 °F 32% 30.19 in 10.0 mi NW 10.4 mph - N/A   Clear
4:54 PM 41.0 °F 34.3 °F 16.0 °F 36% 30.22 in 10.0 mi WNW 11.5 mph - N/A   Clear
5:54 PM 37.9 °F 34.4 °F 17.1 °F 43% 30.23 in 10.0 mi NW 4.6 mph - N/A   Clear
6:54 PM 37.9 °F - 17.1 °F 43% 30.24 in 10.0 mi Calm Calm - N/A   Clear
7:54 PM 35.1 °F 32.2 °F 18.0 °F 50% 30.25 in 10.0 mi SW 3.5 mph - N/A   Clear
8:54 PM 33.1 °F 30.0 °F 18.0 °F 54% 30.26 in 10.0 mi WSW 3.5 mph - N/A   Clear
9:54 PM 36.0 °F 30.3 °F 17.1 °F 46% 30.25 in 10.0 mi West 6.9 mph 17.3 mph N/A   Clear
10:54 PM 36.0 °F 28.0 °F 18.0 °F 48% 30.25 in 10.0 mi WNW 11.5 mph 16.1 mph N/A   Clear
11:54 PM 36.0 °F 31.1 °F 18.0 °F 48% 30.25 in 10.0 mi West 5.8 mph 24.2 mph N/A   Clear